This demonstration page uses our WeatherBlox Daily Observations layout. Learn more.

Left ArrowRight Arrow

34.74481, -87.66753

Hourly Observations for June 21, 2020

Temp ( °F °C ) Dew Point ( °F °C ) Humidity (%) Winds ( mph kmh ) Pressure ( in mb ) Visibility ( mi km ) Precip ( " mm )
12:53 am 00:53 Clear 73 22.8 67 19.4 81 81 Calm 29.96 1015 10 16 0.00 0.00
1:53 am 01:53 Clear 73 22.8 68 20 84 84 Calm 29.95 1014 10 16 0.00 0.00
2:53 am 02:53 Clear 73 22.8 68 20 84 84 Calm 29.93 1013 10 16 0.00 0.00
3:53 am 03:53 Cloudy 74 23.3 68 20 82 82 SSE 5 7 29.92 1013 10 16 0.00 0.00
4:53 am 04:53 Mostly Cloudy 76 24.4 66 18.9 72 72 S 7 11 29.93 1014 10 16 0.00 0.00
5:53 am 05:53 Cloudy 76 24.4 65 18.3 69 69 SSE 7 11 29.95 1014 10 16 0.00 0.00
6:53 am 06:53 Mostly Cloudy 75 23.9 66 18.9 74 74 SSW 7 11 29.95 1014 10 16 0.00 0.00
7:53 am 07:53 Mostly Sunny 77 25 68 20 74 74 SW 6 9 29.96 1015 10 16 0.00 0.00
8:05 am 08:05 Mostly Sunny 79 26.1 68 20 69 69 WSW 8 13 29.97 1015 10 16 0.00 0.00
8:53 am 08:53 Mostly Cloudy 80 26.7 68 20 67 67 WSW 7 11 29.97 1015 10 16 0.00 0.00
9:53 am 09:53 Sunny 84 28.9 68 20 59 59 SW 12 19 29.96 1014 10 16 0.00 0.00
10:53 am 10:53 Mostly Sunny 87 30.6 69 20.6 55 55 SW 12 19 29.94 1014 10 16 0.00 0.00
11:53 am 11:53 Mostly Cloudy 87 30.6 69 20.6 55 55 W 14 22 29.94 1014 10 16 0.00 0.00
12:53 pm 12:53 Mostly Sunny 90 32.2 68 20 48 48 WSW 18 30 29.93 1014 10 16 0.00 0.00
1:11 pm 13:11 Partly Cloudy with Nearby Thunderstorms 88 31.1 67 19.4 50 50 WSW 16 26 29.93 1013 10 16 0.00 0.00
1:39 pm 13:39 Partly Cloudy 90 32.2 69 20.6 50 50 W 20 31 29.90 1013 10 16 0.00 0.00
1:53 pm 13:53 Mostly Sunny 91 32.8 69 20.6 49 49 W 20 31 29.92 1013 10 16 0.00 0.00
2:53 pm 14:53 Mostly Sunny 91 32.8 67 19.4 45 45 W 18 30 29.92 1013 10 16 0.00 0.00
3:53 pm 15:53 Partly Cloudy 91 32.8 68 20 47 47 WNW 16 26 29.91 1013 10 16 0.00 0.00
4:53 pm 16:53 Mostly Sunny 90 32.2 65 18.3 44 44 WNW 13 20 29.90 1013 10 16 0.00 0.00
5:53 pm 17:53 Sunny 89 31.7 66 18.9 47 47 WNW 10 17 29.90 1012 10 16 0.00 0.00
6:53 pm 18:53 Sunny 87 30.6 66 18.9 50 50 WNW 8 13 29.90 1013 10 16 0.00 0.00
7:53 pm 19:53 Sunny 82 27.8 68 20 63 63 NW 5 7 29.91 1013 10 16 0.00 0.00
8:53 pm 20:53 Clear 75 23.9 69 20.6 82 82 ESE 3 6 29.92 1013 10 16 0.00 0.00
9:53 pm 21:53 Clear 75 23.9 69 20.6 82 82 Calm 29.95 1014 10 16 0.00 0.00
10:53 pm 22:53 Mostly Clear 76 24.4 68 20 77 77 Calm 29.96 1015 10 16 0.00 0.00
11:53 pm 23:53 Clear 76 24.4 69 20.6 79 79 WSW 7 11 29.97 1015 10 16 0.00 0.00

Powered by AerisWeather